Wheeling, WV

7:21 PM EST on December 07, 2019 (GMT -0500)
Wheeling-Ohio County

Weather History for KHLG - November, 2019

Change the Weather History Date:

Thursday, November 21, 2019

  Actual Average Record
Temperature  
Mean Temperature 42 °F 41 °F  
Max Temperature 54 °F 49 °F 73 °F (1934)
Min Temperature 30 °F 34 °F 17 °F (1951)
Degree Days  
Heating Degree Days 23 24  
Month to date heating degree days 566 424  
Since 1 July heating degree days 837 898  
Cooling Degree Days 0 0  
Month to date cooling degree days 0 0  
Year to date cooling degree days 986 689  
Moisture  
Dew Point 33 °F    
Average Humidity 64    
Maximum Humidity 82    
Minimum Humidity 46    
Precipitation  
Precipitation T in 0.11 in 1.10 in (1952)
Month to date precipitation 0.64 2.21  
Year to date precipitation 34.72 34.53  
Sea Level Pressure  
Sea Level Pressure 30.10 in    
Wind  
Wind Speed 10 mph (South)    
Max Wind Speed 24 mph    
Max Gust Speed 33 mph    
Visibility 9 miles    
Events Rain    
T = Trace of Precipitation, MM = Missing Value Source: NWS Daily Summary

Daily Weather History Graph

Daily Weather History Graph

Search for Another Location

Airport or City:

Astronomy

Nov. 21, 2019 Rise Set
Actual Time 7:14 AM EST 5:01 PM EST
Civil Twilight 6:45 AM EST 5:31 PM EST
Nautical Twilight 6:12 AM EST 6:04 PM EST
Astronomical Twilight 5:39 AM EST 6:36 PM EST
Moon 1:08 AM EST (11/21) 2:30 PM EST (11/21)
Length of Visible Light 10h 46m
Length of Day
9h 47m
Waning Crescent, 30% of the Moon is Illuminated
Nov 21
Waning Crescent
Nov 26
New
Dec 4
First Quarter
Dec 12
Full
Dec 18
Last Quarter

Hourly Weather History & Observations

Time (EST) Temp. Windchill Dew Point Humidity Pressure Visibility Wind Dir Wind Speed Gust Speed Precip Events Conditions
12:53 AM 32.0 °F 28.7 °F 27.0 °F 82% 30.29 in 7.0 mi SE 3.5 mph - N/A   Clear
1:53 AM 32.0 °F 27.5 °F 27.0 °F 82% 30.28 in 7.0 mi ESE 4.6 mph - N/A   Clear
2:53 AM 32.0 °F - 27.0 °F 82% 30.28 in 7.0 mi Calm Calm - N/A   Clear
3:53 AM 32.0 °F 28.7 °F 27.0 °F 82% 30.26 in 7.0 mi SE 3.5 mph - N/A   Clear
4:53 AM 33.1 °F 30.0 °F 27.0 °F 78% 30.25 in 7.0 mi SE 3.5 mph - N/A   Clear
5:53 AM 35.1 °F 32.2 °F 28.0 °F 76% 30.25 in 8.0 mi SSE 3.5 mph - N/A   Clear
6:53 AM 33.1 °F 27.7 °F 27.0 °F 78% 30.25 in 7.0 mi SSE 5.8 mph - N/A   Clear
7:53 AM 34.0 °F 28.8 °F 28.0 °F 79% 30.23 in 6.0 mi SSE 5.8 mph - N/A   Haze
8:53 AM 37.9 °F 32.7 °F 33.1 °F 83% 30.22 in 7.0 mi South 6.9 mph - N/A   Clear
9:53 AM 41.0 °F 36.4 °F 35.1 °F 79% 30.18 in 7.0 mi SSE 6.9 mph - N/A   Clear
11:53 AM 46.9 °F - 35.1 °F 63% 30.13 in 10.0 mi South 8.1 mph - N/A   Clear
12:53 PM 46.9 °F - 35.1 °F 63% 30.11 in 10.0 mi SSW 8.1 mph - N/A   Scattered Clouds
1:53 PM 48.9 °F - 35.1 °F 59% 30.06 in 10.0 mi South 6.9 mph - N/A   Overcast
2:53 PM 50.0 °F - 34.0 °F 54% 30.03 in 10.0 mi SSW 9.2 mph - N/A   Mostly Cloudy
3:53 PM 51.1 °F - 33.1 °F 50% 29.99 in 10.0 mi South 13.8 mph 18.4 mph N/A   Overcast
4:53 PM 52.0 °F - 32.0 °F 47% 29.97 in 10.0 mi South 16.1 mph 21.9 mph N/A   Overcast
5:53 PM 53.1 °F - 33.1 °F 47% 29.96 in 10.0 mi SSW 17.3 mph 25.3 mph 0.00 in   Overcast
6:53 PM 54.0 °F - 34.0 °F 47% 29.95 in 10.0 mi SSW 16.1 mph 27.6 mph N/A   Overcast
7:53 PM 52.0 °F - 37.0 °F 57% 29.96 in 9.0 mi SW 23.0 mph 32.2 mph 0.00 in Rain Light Rain
8:53 PM 53.1 °F - 37.0 °F 55% 29.96 in 10.0 mi SW 18.4 mph 32.2 mph 0.00 in Rain Light Rain
9:23 PM 54.0 °F - 37.0 °F 53% 29.93 in 10.0 mi SW 17.3 mph 27.6 mph 0.00 in Rain Light Rain
10:17 PM 53.1 °F - 39.9 °F 61% 29.92 in 10.0 mi SW 20.7 mph 27.6 mph 0.00 in Rain Light Rain
10:53 PM 53.1 °F - 39.9 °F 61% 29.94 in 10.0 mi SW 15.0 mph 21.9 mph 0.00 in Rain Light Rain
11:53 PM 54.0 °F - 39.9 °F 59% 29.93 in 10.0 mi SW 11.5 mph 19.6 mph 0.00 in   Overcast